Regional Weather Roundup
Issued by NWS

Home | Current Version | Previous Version | Text Only | Print | Product List | Glossary On
Versions: 1 2 3 4 5 6 7 8 9 10 11 12 13 14 15 16 17 18 19 20 21 22 23 24 25 26 27 28 29 30 31 32 33 34 35 36 37 38 39 40 41 42 43 44 45 46 47 48 49 50
000
ASPQ40 PGUM 181312
RWRPQ
WEATHER ROUNDUP FOR THE MARIANAS AND MICRONESIA
NATIONAL WEATHER SERVICE TIYAN GU
1100 PM CHST THU SEP 18 2014

GUZ001>004-181400-
MARIANA ISLANDS-

CITY           SKY/WX    TMP DP  RH WIND       PRES   REMARKS
GUAM AIRPORT   CLEAR     81  75  83 N6        29.96R
ANDERSEN AFB   PTCLDY    81  75  83 N10       29.95S
ROTA AIRPORT   NOT AVBL
TINIAN AP      NOT AVBL
SAIPAN AP      PTCLDY    82  75  78 NE6       29.93F

$$

PMZ161-181400-
REPUBLIC OF PALAU-

CITY           SKY/WX    TMP DP  RH WIND       PRES   REMARKS
KOROR AP       PTCLDY    79  77  94 CALM      29.95R
KOROR WSO      MOCLDY    82  77  83 CALM      29.94R HX  91

$$

PMZ171>174-181400-
FEDERATED STATES OF MICRONESIA-

CITY           SKY/WX    TMP DP  RH WIND       PRES   REMARKS
YAP AIRPORT    MOCLDY    79  75  89 VRB3      29.93R
CHUUK AP       CLOUDY    84  79  84 VRB3      29.83F HX  96
POHNPEI AP     NOT AVBL
POHNPEI WSO    PTCLDY    77  75  94 SE3       29.86F
KOSRAE AP      NOT AVBL

$$

PMZ181-181400-
REPUBLIC OF THE MARSHALL ISLANDS-

CITY           SKY/WX    TMP DP  RH WIND       PRES   REMARKS
KWAJALEIN AP   PTCLDY    82  75  78 E7        29.83S
MAJURO AP      NOT AVBL
MAJURO WSO     PTCLDY    82  77  83 CALM      29.80F HX  91

$$




USA.gov is the U.S. government's official web portal to all federal, state and local government web resources and services.